Regional Weather Roundup
Issued by NWS

Home | Current Version | Previous Version | Graphics & Text | Print | Product List | Glossary On
Versions: 1 2 3 4 5 6 7 8 9 10 11 12 13 14 15 16 17 18 19 20 21 22 23 24 25 26 27 28 29 30 31 32 33 34 35 36 37 38 39 40 41 42 43 44 45 46 47 48 49 50
611
ASUS45 KBOI 060710
RWRID

IDAHO REGIONAL WEATHER ROUNDUP
NATIONAL WEATHER SERVICE BOISE ID
100 AM MDT FRI MAY 06 2016

NOTE: "FAIR" INDICATES FEW OR NO CLOUDS BELOW 12000 FEET
WITH NO SIGNIFICANT WEATHER AND/OR OBSTRUCTIONS TO VISIBILITY

IDZ012-014-060800-
SOUTHWEST IDAHO


CITY           SKY/WX    TMP DP  RH WIND       PRES   REMARKS
BOISE          CLOUDY    60  48  64 W12       29.79S
CALDWELL       CLOUDY    59  49  69 W12       29.80F
MOUNTAIN HOME  PTCLDY    62  46  56 W14       29.77R
$$

IDZ016-017-060800-
SOUTHCENTRAL IDAHO


CITY           SKY/WX    TMP DP  RH WIND       PRES   REMARKS
BURLEY         LGT RAIN  61  47  59 SW9       29.85R
JEROME         CLOUDY    59  46  62 S6        29.83R
TWIN FALLS     CLOUDY    60  44  55 SW9G17    29.82F
$$

IDZ019>023-060800-
SOUTHEAST IDAHO


CITY           SKY/WX    TMP DP  RH WIND       PRES   REMARKS
IDAHO FALLS    CLOUDY    57  41  55 NW3       29.87S
POCATELLO      CLOUDY    58  40  51 NE5       29.83S
REXBURG        CLOUDY    58  36  43 N5        29.89R
$$

IDZ006-010-011-018-031-032-060800-
CENTRAL IDAHO MOUNTAINS


CITY           SKY/WX    TMP DP  RH WIND       PRES   REMARKS
MCCALL         PTCLDY    52  43  71 N6        29.92R
HAILEY         CLOUDY    57  34  41 NW9       29.90S
STANLEY          N/A     39  33  79 CALM      30.00R
SALMON         CLOUDY    55  36  47 CALM      29.86R
CHALLIS        CLOUDY    54  33  45 CALM      29.91R
$$

IDZ002-004-006-007-026-060800-
NORTHERN IDAHO


CITY           SKY/WX    TMP DP  RH WIND       PRES   REMARKS
LEWISTON       LGT RAIN  61  58  90 S10       29.91F
LOWELL           N/A     58  57  97 CALM      29.95R
COEUR D`ALENE  CLOUDY    59  48  67 NE9       29.92R
MULLAN PASS    LGT RAIN  45  43  93 SE8         N/A
$$




USA.gov is the U.S. government's official web portal to all federal, state and local government web resources and services.